Regional Weather Roundup
Issued by NWS Midland/Odessa, TX

Skip options and go directly to product.
Home | Oldest Version | Next Version | Current Version | All | Text Only | Save Text | Print | Product List | Glossary On

Skip product version selection by date and time.   
442
ASUS44 KMAF 041801
RWRMAF
MIDLAND AREA WEATHER ROUNDUP
NATIONAL WEATHER SERVICE MIDLAND TX
100 PM CDT SAT JUL 04 2015

...IN SOUTHWEST TEXAS AND SOUTHEAST NEW MEXICO...

CITY           SKY/WX    TMP DP  RH WIND       PRES   REMARKS
ALPINE         CLOUDY    81  60  49 NE7       30.15S
ANDREWS        PTSUNNY   85  62  46 SE5       30.07S
ARTESIA        MOSUNNY   84  63  48 E12       30.07F
BIG SPRING     PTSUNNY   84  64  49 SE6       30.06F
CARLSBAD       SUNNY     85  62  46 NE5       30.04F
DRYDEN           N/A     82  69  64 E7        30.00F
FORT STOCKTON  MOSUNNY   83  66  56 SE10      30.03F
GUAD PASS      SUNNY     79  56  45 E17G24    30.18F
HOBBS          PTSUNNY   82  61  47 SE9       30.09F
MARFA          CLOUDY   N/A N/A N/A S6        30.14S
MIDLAND AIRPK  PTSUNNY   85  65  51 S12       30.06S
MIDLAND INTL   MOSUNNY   85  65  51 SE12      30.05S
ODESSA         MOSUNNY   84  64  50 S12       30.06S
PECOS          MOSUNNY   87  64  44 E10       30.00F
PRESIDIO       CLOUDY    85  65  49 MISG      30.00S
SEMINOLE       MOSUNNY   86  60  41 SE8       30.09S
SNYDER         MOSUNNY   82  67  60 S6        30.05F
WINK           PTSUNNY   86  64  47 E9G18     30.02S
$$
...OTHER STATIONS IN TEXAS...

CITY           SKY/WX    TMP DP  RH WIND       PRES   REMARKS
ABILENE        PTSUNNY   88  65  46 VRB5      30.01F
AMARILLO       SUNNY     84  62  47 S8        30.07F
AUSTIN         PTSUNNY   86  73  65 S13       30.00F
BROWNSVILLE    CLOUDY    89  76  65 SE23G31   29.99R HX 100
CORPUS CHRISTI PTSUNNY   90  74  59 SE21G28   29.99S
DALLAS FTW     MOSUNNY   90  71  53 S15       29.97F
DEL RIO        PTSUNNY   87  71  58 SE9       29.96F
EL PASO        PTSUNNY   88  56  33 N7        30.04F
HOUSTON INT    PTSUNNY   89  75  63 S9        30.02F
LUBBOCK        PTSUNNY   86  62  44 S9        30.06F
SAN ANGELO     SUNNY     85  66  53 S13       30.03S
SAN ANTONIO    PTSUNNY   87  71  58 SE12      30.01S
WACO           PTSUNNY   91  70  49 S14       30.01S
WICHITA FALLS  NOT AVBL
$$
...OTHER LOCATIONS IN NEW MEXICO...

CITY           SKY/WX    TMP DP  RH WIND       PRES   REMARKS
ALAMAGORDO     SUNNY     84  55  37 W8        30.08F
ALBUQUERQUE    MOSUNNY   82  56  40 SW7       30.13F
CANNON AFB     SUNNY     82  62  51 S7        30.10F
CLOVIS         MOSUNNY   82  63  51 S6          N/A
HOLLOMAN AFB   SUNNY     86  58  38 VRB3      30.05F
ROSWELL        MOSUNNY   86  60  41 SE13      30.06F
RUIDOSO        MOSUNNY   75  54  46 S3        30.28S
SANTA FE       SUNNY     81  51  35 VRB3      30.19F
TRUTH OR CONSE MOSUNNY   86  56  35 SE7G17    30.09F
TUCUMCARI      SUNNY     87  61  41 SW13G20   30.05F
$$

USA.gov is the U.S. government's official web portal to all federal, state and local government web resources and services.